| time (UTC) | temp F | wind direction | speed MPH | gust MPH | rain 1hr in | rain 24hr in | rain mn in | humidity % | barometer mb |
| 20260903071528 | 53 | 342 | 0.0 | 0.0 | 0.00 | 0.01 | 0.00 | 83 | 1012.3 |
| 20260903070024 | 53 | 342 | 0.0 | 0.0 | 0.00 | 0.01 | 0.00 | 82 | 1012.4 |
| 20260903064526 | 54 | 342 | 0.0 | 0.0 | 0.00 | 0.01 | 0.01 | 81 | 1012.4 |
| 20260903063022 | 54 | 342 | 0.0 | 0.0 | 0.00 | 0.01 | 0.01 | 81 | 1012.3 |
| 20260903061523 | 55 | 342 | 0.0 | 0.0 | 0.00 | 0.01 | 0.01 | 80 | 1012.5 |
| 20260903060022 | 55 | 342 | 0.0 | 0.0 | 0.00 | 0.01 | 0.01 | 79 | 1012.6 |
| 20260903054523 | 55 | 342 | 0.0 | 0.0 | 0.00 | 0.01 | 0.01 | 78 | 1012.6 |
| 20260903053020 | 56 | 342 | 0.0 | 0.0 | 0.00 | 0.01 | 0.01 | 77 | 1012.6 |
| 20260903051520 | 56 | 342 | 0.0 | 0.0 | 0.00 | 0.01 | 0.01 | 77 | 1012.7 |
| 20260903050020 | 57 | 342 | 0.0 | 0.0 | 0.00 | 0.01 | 0.01 | 75 | 1012.7 |
| 20260903044523 | 58 | 342 | 0.0 | 1.0 | 0.00 | 0.01 | 0.01 | 74 | 1012.7 |
| 20260903043018 | 58 | 342 | 0.0 | 0.0 | 0.00 | 0.01 | 0.01 | 73 | 1012.5 |
| 20260903041518 | 59 | 342 | 0.0 | 0.0 | 0.00 | 0.01 | 0.01 | 71 | 1012.3 |
| 20260903040023 | 60 | 342 | 0.0 | 1.0 | 0.00 | 0.01 | 0.01 | 69 | 1012.1 |
| 20260903034520 | 61 | 342 | 0.0 | 0.0 | 0.00 | 0.01 | 0.01 | 67 | 1012.0 |
| 20260903033017 | 63 | 342 | 0.0 | 0.0 | 0.00 | 0.01 | 0.01 | 65 | 1011.8 |
| 20260903031517 | 64 | 342 | 0.0 | 0.0 | 0.00 | 0.01 | 0.01 | 63 | 1011.7 |
| 20260903030017 | 65 | 342 | 0.0 | 1.0 | 0.00 | 0.01 | 0.01 | 60 | 1011.7 |
| 20260903024535 | 66 | 342 | 0.0 | 1.0 | 0.00 | 0.01 | 0.01 | 59 | 1011.7 |
| 20260903023036 | 66 | 298 | 0.0 | 1.0 | 0.00 | 0.01 | 0.01 | 59 | 1011.6 |
| 20260903021535 | 67 | 303 | 0.0 | 1.0 | 0.00 | 0.01 | 0.01 | 57 | 1011.7 |
| 20260903020042 | 68 | 136 | 0.0 | 1.0 | 0.00 | 0.01 | 0.01 | 55 | 1011.7 |
| 20260903014533 | 68 | 295 | 1.0 | 7.0 | 0.00 | 0.01 | 0.01 | 55 | 1011.7 |
| 20260903013032 | 69 | 288 | 0.0 | 2.0 | 0.00 | 0.01 | 0.01 | 54 | 1011.8 |
| 20260903011530 | 70 | 238 | 0.0 | 3.0 | 0.00 | 0.01 | 0.01 | 53 | 1011.9 |
| 20260903010031 | 70 | 243 | 0.0 | 5.0 | 0.00 | 0.01 | 0.01 | 52 | 1011.9 |
| 20260903004533 | 70 | 288 | 1.0 | 5.0 | 0.00 | 0.01 | 0.01 | 52 | 1011.9 |
| 20260903003027 | 70 | 290 | 1.0 | 7.0 | 0.00 | 0.01 | 0.01 | 51 | 1011.9 |
| 20260903001526 | 70 | 271 | 0.0 | 4.0 | 0.00 | 0.01 | 0.01 | 51 | 1012.1 |
| 20260903000032 | 71 | 205 | 0.0 | 4.0 | 0.00 | 0.01 | 0.01 | 50 | 1012.2 |
| 20260902234527 | 72 | 193 | 1.0 | 5.0 | 0.00 | 0.01 | 0.01 | 48 | 1012.2 |
| 20260902233022 | 72 | 236 | 0.0 | 6.0 | 0.01 | 0.01 | 0.01 | 49 | 1012.1 |
| 20260902231523 | 72 | 231 | 1.0 | 5.0 | 0.01 | 0.01 | 0.01 | 49 | 1012.3 |
| 20260902230019 | 71 | 205 | 1.0 | 5.0 | 0.01 | 0.01 | 0.01 | 49 | 1012.2 |
| 20260902224517 | 72 | 295 | 2.0 | 6.0 | 0.01 | 0.01 | 0.01 | 48 | 1012.4 |
| 20260902223027 | 74 | 268 | 0.0 | 6.0 | 0.00 | 0.00 | 0.00 | 46 | 1012.4 |
| 20260902221520 | 73 | 245 | 1.0 | 6.0 | 0.00 | 0.00 | 0.00 | 46 | 1012.4 |
| 20260902220012 | 73 | 204 | 1.0 | 6.0 | 0.00 | 0.00 | 0.00 | 45 | 1012.6 |
| 20260902214510 | 73 | 285 | 2.0 | 6.0 | 0.00 | 0.00 | 0.00 | 44 | 1012.8 |
| 20260902213009 | 75 | 222 | 0.0 | 3.0 | 0.00 | 0.00 | 0.00 | 43 | 1012.8 |
| 20260902211513 | 76 | 203 | 1.0 | 5.0 | 0.00 | 0.00 | 0.00 | 42 | 1012.9 |
| 20260902210006 | 75 | 188 | 2.0 | 6.0 | 0.00 | 0.00 | 0.00 | 42 | 1012.8 |
| 20260902204505 | 73 | 174 | 1.0 | 9.0 | 0.00 | 0.00 | 0.00 | 45 | 1013.0 |
| 20260902203005 | 74 | 181 | 1.0 | 4.0 | 0.00 | 0.00 | 0.00 | 43 | 1013.2 |
| 20260902201502 | 74 | 252 | 0.0 | 3.0 | 0.00 | 0.00 | 0.00 | 42 | 1013.4 |
| 20260902200001 | 73 | 231 | 1.0 | 4.0 | 0.00 | 0.00 | 0.00 | 42 | 1013.4 |
| 20260902194559 | 72 | 202 | 1.0 | 4.0 | 0.00 | 0.00 | 0.00 | 41 | 1013.7 |
| 20260902193057 | 70 | 108 | 2.0 | 4.0 | 0.00 | 0.00 | 0.00 | 44 | 1013.9 |
| 20260902191556 | 72 | 279 | 2.0 | 4.0 | 0.00 | 0.00 | 0.00 | 44 | 1014.1 |
| 20260902190052 | 70 | 180 | 2.0 | 5.0 | 0.00 | 0.00 | 0.00 | 45 | 1014.0 |
| 20260902184548 | 68 | 244 | 1.0 | 5.0 | 0.00 | 0.00 | 0.00 | 49 | 1014.0 |
| 20260902183058 | 67 | 287 | 2.0 | 4.0 | 0.00 | 0.00 | 0.00 | 49 | 1014.2 |
| 20260902181545 | 67 | 200 | 0.0 | 3.0 | 0.00 | 0.00 | 0.00 | 51 | 1014.2 |
| 20260902180045 | 65 | 291 | 0.0 | 2.0 | 0.00 | 0.00 | 0.00 | 54 | 1014.2 |
| 20260902174543 | 65 | 356 | 0.0 | 2.0 | 0.00 | 0.00 | 0.00 | 55 | 1014.3 |
| 20260902173053 | 65 | 236 | 0.0 | 1.0 | 0.00 | 0.00 | 0.00 | 55 | 1014.1 |
| 20260902171539 | 65 | 246 | 0.0 | 2.0 | 0.00 | 0.00 | 0.00 | 55 | 1014.0 |
| 20260902170048 | 65 | 293 | 0.0 | 2.0 | 0.00 | 0.00 | 0.00 | 57 | 1013.8 |
| 20260902164541 | 64 | 244 | 0.0 | 3.0 | 0.00 | 0.00 | 0.00 | 58 | 1013.8 |
| 20260902163135 | 62 | 178 | 0.0 | 2.0 | 0.00 | 0.00 | 0.00 | 63 | 1014.0 |
| 20260902161550 | 60 | 139 | 0.0 | 1.0 | 0.00 | 0.00 | 0.00 | 64 | 1014.0 |
| 20260902160010 | 59 | 330 | 1.0 | 1.0 | 0.00 | 0.00 | 0.00 | 69 | 1014.0 |
| 20260902154508 | 57 | 224 | 0.0 | 0.0 | 0.00 | 0.00 | 0.00 | 74 | 1013.8 |
| 20260902153002 | 56 | 224 | 0.0 | 0.0 | 0.00 | 0.00 | 0.00 | 76 | 1013.9 |
| 20260902151559 | 55 | 224 | 0.0 | 0.0 | 0.00 | 0.00 | 0.00 | 77 | 1014.0 |
| 20260902150055 | 54 | 224 | 0.0 | 0.0 | 0.00 | 0.00 | 0.00 | 80 | 1014.0 |
| 20260902144550 | 53 | 200 | 0.0 | 0.0 | 0.00 | 0.00 | 0.00 | 83 | 1013.9 |
| 20260902143051 | 52 | 200 | 0.0 | 0.0 | 0.00 | 0.00 | 0.00 | 84 | 1014.0 |
| 20260902141546 | 51 | 200 | 0.0 | 0.0 | 0.00 | 0.00 | 0.00 | 85 | 1014.0 |
| 20260902140044 | 51 | 200 | 0.0 | 0.0 | 0.00 | 0.00 | 0.00 | 85 | 1013.7 |
| 20260902134543 | 50 | 200 | 0.0 | 0.0 | 0.00 | 0.00 | 0.00 | 85 | 1013.4 |
| 20260902133016 | 50 | 200 | 0.0 | 0.0 | 0.00 | 0.00 | 0.00 | 86 | 1013.4 |
| 20260902131612 | 50 | 200 | 0.0 | 0.0 | 0.00 | 0.00 | 0.00 | 86 | 1013.3 |
| 20260902130110 | 49 | 200 | 0.0 | 0.0 | 0.00 | 0.00 | 0.00 | 87 | 1013.2 |
| 20260902124600 | 49 | 200 | 0.0 | 0.0 | 0.00 | 0.00 | 0.00 | 87 | 1013.1 |
| 20260902123100 | 49 | 200 | 0.0 | 0.0 | 0.00 | 0.00 | 0.00 | 87 | 1013.1 |
| 20260902121557 | 49 | 200 | 0.0 | 0.0 | 0.00 | 0.00 | 0.00 | 88 | 1013.0 |
| 20260902120056 | 48 | 200 | 0.0 | 0.0 | 0.00 | 0.00 | 0.00 | 89 | 1012.9 |
| 20260902114555 | 48 | 200 | 0.0 | 0.0 | 0.00 | 0.00 | 0.00 | 88 | 1012.9 |
| 20260902113054 | 48 | 200 | 0.0 | 0.0 | 0.00 | 0.00 | 0.00 | 88 | 1013.0 |
| 20260902111558 | 48 | 200 | 0.0 | 0.0 | 0.00 | 0.00 | 0.00 | 88 | 1013.2 |
| 20260902110058 | 48 | 200 | 0.0 | 0.0 | 0.00 | 0.00 | 0.00 | 89 | 1013.3 |
| 20260902104605 | 48 | 200 | 0.0 | 0.0 | 0.00 | 0.00 | 0.00 | 88 | 1013.2 |
| 20260902103106 | 48 | 200 | 0.0 | 0.0 | 0.00 | 0.00 | 0.00 | 88 | 1013.2 |
| 20260902101559 | 48 | 200 | 0.0 | 0.0 | 0.00 | 0.00 | 0.00 | 88 | 1013.2 |
| 20260902100047 | 48 | 200 | 0.0 | 0.0 | 0.00 | 0.00 | 0.00 | 87 | 1013.3 |
| 20260902094545 | 48 | 200 | 0.0 | 0.0 | 0.00 | 0.00 | 0.00 | 87 | 1013.3 |
| 20260902093042 | 49 | 200 | 0.0 | 0.0 | 0.00 | 0.00 | 0.00 | 86 | 1013.2 |
| 20260902091541 | 49 | 200 | 0.0 | 0.0 | 0.00 | 0.00 | 0.00 | 85 | 1013.0 |
| 20260902090041 | 50 | 200 | 0.0 | 0.0 | 0.00 | 0.00 | 0.00 | 85 | 1012.9 |
| 20260902084540 | 50 | 200 | 0.0 | 0.0 | 0.00 | 0.00 | 0.00 | 84 | 1013.0 |
| 20260902083033 | 51 | 200 | 0.0 | 0.0 | 0.00 | 0.00 | 0.00 | 83 | 1012.9 |
| 20260902081532 | 51 | 200 | 0.0 | 0.0 | 0.00 | 0.00 | 0.00 | 85 | 1012.9 |
| 20260902080031 | 51 | 200 | 0.0 | 0.0 | 0.00 | 0.00 | 0.00 | 84 | 1012.9 |
| 20260902074529 | 51 | 200 | 0.0 | 0.0 | 0.00 | 0.00 | 0.00 | 83 | 1012.8 |
| 20260902073028 | 51 | 200 | 0.0 | 1.0 | 0.00 | 0.00 | 0.00 | 82 | 1012.8 |